Time,TemperatureF,DewpointF,PressureIn,WindDirection,WindDirectionDegrees,WindSpeedMPH,WindSpeedGustMPH,Humidity,HourlyPrecipIn,Conditions,Clouds,dailyrainin,SoftwareType,DateUTC
2013-01-06 00:00:00,5.1,1.8,30.48,NE,45,0.0,-999.0,86,0.00,,,0.00,Wunderground v.1.15,2013-01-06 05:00:00,
2013-01-06 00:05:00,5.1,1.8,30.48,NE,45,0.0,-999.0,86,0.00,,,0.00,Wunderground v.1.15,2013-01-06 05:05:00,
2013-01-06 00:10:00,5.1,1.8,30.48,NE,45,0.0,-999.0,86,0.00,,,0.00,Wunderground v.1.15,2013-01-06 05:10:00,
2013-01-06 00:15:00,5.1,1.8,30.48,NE,45,0.0,-999.0,86,0.00,,,0.00,Wunderground v.1.15,2013-01-06 05:15:00,
2013-01-06 00:20:00,5.1,1.8,30.48,NE,45,0.0,-999.0,86,0.00,,,0.00,Wunderground v.1.15,2013-01-06 05:20:00,
2013-01-06 00:25:00,5.1,1.8,30.48,NE,45,0.0,-999.0,86,0.00,,,0.00,Wunderground v.1.15,2013-01-06 05:25:00,
2013-01-06 00:30:00,5.1,1.8,30.48,NE,45,0.0,-999.0,86,0.00,,,0.00,Wunderground v.1.15,2013-01-06 05:30:00,
2013-01-06 00:35:00,5.1,1.8,30.48,NE,45,0.0,-999.0,86,0.00,,,0.00,Wunderground v.1.15,2013-01-06 05:35:00,
2013-01-06 00:40:00,5.1,1.8,30.48,NE,45,0.0,-999.0,86,0.00,,,0.00,Wunderground v.1.15,2013-01-06 05:40:00,
2013-01-06 00:45:00,5.6,2.6,30.48,N/A,-737280,0.0,-999.0,87,0.00,,,0.00,Wunderground v.1.15,2013-01-06 05:45:00,
2013-01-06 00:50:00,5.6,2.6,30.48,N/A,-737280,0.0,-999.0,87,0.00,,,0.00,Wunderground v.1.15,2013-01-06 05:50:00,
2013-01-06 00:55:00,5.6,2.6,30.48,N/A,-737280,0.0,-999.0,87,0.00,,,0.00,Wunderground v.1.15,2013-01-06 05:55:00,
2013-01-06 01:00:00,5.6,2.6,30.48,N/A,-737280,0.0,-999.0,87,0.00,,,0.00,Wunderground v.1.15,2013-01-06 06:00:00,
2013-01-06 01:05:00,5.6,2.6,30.48,N/A,-737280,0.0,-999.0,87,0.00,,,0.00,Wunderground v.1.15,2013-01-06 06:05:00,
2013-01-06 01:10:00,5.6,2.6,30.48,N/A,-737280,0.0,-999.0,87,0.00,,,0.00,Wunderground v.1.15,2013-01-06 06:10:00,
2013-01-06 01:15:00,6.1,3.1,30.44,ESE,113,0.0,-999.0,87,0.00,,,0.00,Wunderground v.1.15,2013-01-06 06:15:00,
2013-01-06 01:20:00,6.1,3.1,30.44,ESE,113,0.0,-999.0,87,0.00,,,0.00,Wunderground v.1.15,2013-01-06 06:20:00,
2013-01-06 01:25:00,6.1,3.1,30.44,ESE,113,0.0,-999.0,87,0.00,,,0.00,Wunderground v.1.15,2013-01-06 06:25:00,
2013-01-06 01:30:00,6.1,3.1,30.44,ESE,113,0.0,-999.0,87,0.00,,,0.00,Wunderground v.1.15,2013-01-06 06:30:00,
2013-01-06 01:35:00,6.1,3.1,30.44,ESE,113,0.0,-999.0,87,0.00,,,0.00,Wunderground v.1.15,2013-01-06 06:35:00,
2013-01-06 01:40:00,6.1,3.1,30.44,ESE,113,0.0,-999.0,87,0.00,,,0.00,Wunderground v.1.15,2013-01-06 06:40:00,
2013-01-06 01:45:00,5.9,2.9,30.43,NNE,23,0.0,-999.0,87,0.00,,,0.00,Wunderground v.1.15,2013-01-06 06:45:00,
2013-01-06 01:50:00,5.9,2.9,30.43,NNE,23,0.0,-999.0,87,0.00,,,0.00,Wunderground v.1.15,2013-01-06 06:50:00,
2013-01-06 01:55:00,5.9,2.9,30.43,NNE,23,0.0,-999.0,87,0.00,,,0.00,Wunderground v.1.15,2013-01-06 06:55:00,
2013-01-06 02:00:00,5.9,2.9,30.43,NNE,23,0.0,-999.0,87,0.00,,,0.00,Wunderground v.1.15,2013-01-06 07:00:00,
2013-01-06 02:05:00,5.9,2.9,30.43,NNE,23,0.0,-999.0,87,0.00,,,0.00,Wunderground v.1.15,2013-01-06 07:05:00,
2013-01-06 02:10:00,5.9,2.9,30.43,NNE,23,0.0,-999.0,87,0.00,,,0.00,Wunderground v.1.15,2013-01-06 07:10:00,
2013-01-06 02:15:00,5.9,3.1,30.42,East,90,0.0,-999.0,88,0.00,,,0.00,Wunderground v.1.15,2013-01-06 07:15:00,
2013-01-06 02:20:00,5.9,3.1,30.42,East,90,0.0,-999.0,88,0.00,,,0.00,Wunderground v.1.15,2013-01-06 07:20:00,
2013-01-06 02:25:00,5.9,3.1,30.42,East,90,0.0,-999.0,88,0.00,,,0.00,Wunderground v.1.15,2013-01-06 07:25:00,
2013-01-06 02:30:00,5.9,3.1,30.42,East,90,0.0,-999.0,88,0.00,,,0.00,Wunderground v.1.15,2013-01-06 07:30:00,
2013-01-06 02:35:00,5.9,3.1,30.42,East,90,0.0,-999.0,88,0.00,,,0.00,Wunderground v.1.15,2013-01-06 07:35:00,
2013-01-06 02:40:00,5.9,3.1,30.42,East,90,0.0,-999.0,88,0.00,,,0.00,Wunderground v.1.15,2013-01-06 07:40:00,
2013-01-06 02:45:00,6.4,3.4,30.41,ENE,68,0.0,-999.0,87,0.00,,,0.00,Wunderground v.1.15,2013-01-06 07:45:00,
2013-01-06 02:50:00,6.4,3.4,30.41,ENE,68,0.0,-999.0,87,0.00,,,0.00,Wunderground v.1.15,2013-01-06 07:50:00,
2013-01-06 02:55:00,6.4,3.4,30.41,ENE,68,0.0,-999.0,87,0.00,,,0.00,Wunderground v.1.15,2013-01-06 07:55:00,
2013-01-06 03:00:00,6.4,3.4,30.41,ENE,68,0.0,-999.0,87,0.00,,,0.00,Wunderground v.1.15,2013-01-06 08:00:00,
2013-01-06 03:05:00,6.4,3.4,30.41,ENE,68,0.0,-999.0,87,0.00,,,0.00,Wunderground v.1.15,2013-01-06 08:05:00,
2013-01-06 03:10:00,6.4,3.4,30.41,ENE,68,0.0,-999.0,87,0.00,,,0.00,Wunderground v.1.15,2013-01-06 08:10:00,
2013-01-06 03:15:00,6.8,3.8,30.39,SW,225,0.0,-999.0,87,0.00,,,0.00,Wunderground v.1.15,2013-01-06 08:15:00,
2013-01-06 03:20:00,6.8,3.8,30.39,SW,225,0.0,-999.0,87,0.00,,,0.00,Wunderground v.1.15,2013-01-06 08:20:00,
2013-01-06 03:25:00,6.8,3.8,30.39,SW,225,0.0,-999.0,87,0.00,,,0.00,Wunderground v.1.15,2013-01-06 08:25:00,
2013-01-06 03:30:00,6.8,3.8,30.39,SW,225,0.0,-999.0,87,0.00,,,0.00,Wunderground v.1.15,2013-01-06 08:30:00,
2013-01-06 03:35:00,6.8,3.8,30.39,SW,225,0.0,-999.0,87,0.00,,,0.00,Wunderground v.1.15,2013-01-06 08:35:00,
2013-01-06 03:40:00,6.8,3.8,30.39,SW,225,0.0,-999.0,87,0.00,,,0.00,Wunderground v.1.15,2013-01-06 08:40:00,
2013-01-06 03:45:00,7.3,4.2,30.38,East,90,0.0,-999.0,87,0.00,,,0.00,Wunderground v.1.15,2013-01-06 08:45:00,
2013-01-06 03:50:00,7.3,4.2,30.38,East,90,0.0,-999.0,87,0.00,,,0.00,Wunderground v.1.15,2013-01-06 08:50:00,
2013-01-06 03:55:00,7.3,4.2,30.38,East,90,0.0,-999.0,87,0.00,,,0.00,Wunderground v.1.15,2013-01-06 08:55:00,
2013-01-06 04:00:00,7.3,4.2,30.38,East,90,0.0,-999.0,87,0.00,,,0.00,Wunderground v.1.15,2013-01-06 09:00:00,
2013-01-06 04:05:00,7.3,4.2,30.38,East,90,0.0,-999.0,87,0.00,,,0.00,Wunderground v.1.15,2013-01-06 09:05:00,
2013-01-06 04:10:00,7.3,4.2,30.38,East,90,0.0,-999.0,87,0.00,,,0.00,Wunderground v.1.15,2013-01-06 09:10:00,
2013-01-06 04:15:00,7.9,4.8,30.37,East,90,0.0,-999.0,87,0.00,,,0.00,Wunderground v.1.15,2013-01-06 09:15:00,
2013-01-06 04:20:00,7.9,4.8,30.37,East,90,0.0,-999.0,87,0.00,,,0.00,Wunderground v.1.15,2013-01-06 09:20:00,
2013-01-06 04:25:00,7.9,4.8,30.37,East,90,0.0,-999.0,87,0.00,,,0.00,Wunderground v.1.15,2013-01-06 09:25:00,
2013-01-06 04:30:00,7.9,4.8,30.37,East,90,0.0,-999.0,87,0.00,,,0.00,Wunderground v.1.15,2013-01-06 09:30:00,
2013-01-06 04:35:00,7.9,4.8,30.37,East,90,0.0,-999.0,87,0.00,,,0.00,Wunderground v.1.15,2013-01-06 09:35:00,
2013-01-06 04:40:00,7.9,4.8,30.37,East,90,0.0,-999.0,87,0.00,,,0.00,Wunderground v.1.15,2013-01-06 09:40:00,
2013-01-06 04:45:00,8.3,5.2,30.36,N/A,-737280,0.0,-999.0,87,0.00,,,0.00,Wunderground v.1.15,2013-01-06 09:45:00,
2013-01-06 04:50:00,8.3,5.2,30.36,N/A,-737280,0.0,-999.0,87,0.00,,,0.00,Wunderground v.1.15,2013-01-06 09:50:00,
2013-01-06 04:55:00,8.3,5.2,30.36,N/A,-737280,0.0,-999.0,87,0.00,,,0.00,Wunderground v.1.15,2013-01-06 09:55:00,
2013-01-06 05:00:00,8.3,5.2,30.36,N/A,-737280,0.0,-999.0,87,0.00,,,0.00,Wunderground v.1.15,2013-01-06 10:00:00,
2013-01-06 05:05:00,8.3,5.2,30.36,N/A,-737280,0.0,-999.0,87,0.00,,,0.00,Wunderground v.1.15,2013-01-06 10:05:00,
2013-01-06 05:10:00,8.3,5.2,30.36,N/A,-737280,0.0,-999.0,87,0.00,,,0.00,Wunderground v.1.15,2013-01-06 10:10:00,
2013-01-06 05:15:00,8.7,5.9,30.36,East,90,0.0,-999.0,88,0.00,,,0.00,Wunderground v.1.15,2013-01-06 10:15:00,
2013-01-06 05:20:00,8.7,5.9,30.36,East,90,0.0,-999.0,88,0.00,,,0.00,Wunderground v.1.15,2013-01-06 10:20:00,
2013-01-06 05:25:00,8.7,5.9,30.36,East,90,0.0,-999.0,88,0.00,,,0.00,Wunderground v.1.15,2013-01-06 10:25:00,
2013-01-06 05:30:00,8.7,5.9,30.36,East,90,0.0,-999.0,88,0.00,,,0.00,Wunderground v.1.15,2013-01-06 10:30:00,
2013-01-06 05:35:00,8.7,5.9,30.36,East,90,0.0,-999.0,88,0.00,,,0.00,Wunderground v.1.15,2013-01-06 10:35:00,
2013-01-06 05:40:00,8.7,5.9,30.36,East,90,0.0,-999.0,88,0.00,,,0.00,Wunderground v.1.15,2013-01-06 10:40:00,
2013-01-06 05:45:00,9.0,6.2,30.35,N/A,-737280,0.0,-999.0,88,0.00,,,0.00,Wunderground v.1.15,2013-01-06 10:45:00,
2013-01-06 05:50:00,9.0,6.2,30.35,N/A,-737280,0.0,-999.0,88,0.00,,,0.00,Wunderground v.1.15,2013-01-06 10:50:00,
2013-01-06 05:55:00,9.0,6.2,30.35,N/A,-737280,0.0,-999.0,88,0.00,,,0.00,Wunderground v.1.15,2013-01-06 10:55:00,
2013-01-06 06:00:00,9.0,6.2,30.35,N/A,-737280,0.0,-999.0,88,0.00,,,0.00,Wunderground v.1.15,2013-01-06 11:00:00,
2013-01-06 06:05:00,9.0,6.2,30.35,N/A,-737280,0.0,-999.0,88,0.00,,,0.00,Wunderground v.1.15,2013-01-06 11:05:00,
2013-01-06 06:10:00,9.0,6.2,30.35,N/A,-737280,0.0,-999.0,88,0.00,,,0.00,Wunderground v.1.15,2013-01-06 11:10:00,
2013-01-06 06:15:00,9.2,6.1,30.34,N/A,-737280,0.0,-999.0,87,0.00,,,0.00,Wunderground v.1.15,2013-01-06 11:15:00,
2013-01-06 06:20:00,9.2,6.1,30.34,N/A,-737280,0.0,-999.0,87,0.00,,,0.00,Wunderground v.1.15,2013-01-06 11:20:00,
2013-01-06 06:25:00,9.2,6.1,30.34,N/A,-737280,0.0,-999.0,87,0.00,,,0.00,Wunderground v.1.15,2013-01-06 11:25:00,
2013-01-06 06:30:00,9.2,6.1,30.34,N/A,-737280,0.0,-999.0,87,0.00,,,0.00,Wunderground v.1.15,2013-01-06 11:30:00,
2013-01-06 06:35:00,9.2,6.1,30.34,N/A,-737280,0.0,-999.0,87,0.00,,,0.00,Wunderground v.1.15,2013-01-06 11:35:00,
2013-01-06 06:40:00,9.2,6.1,30.34,N/A,-737280,0.0,-999.0,87,0.00,,,0.00,Wunderground v.1.15,2013-01-06 11:40:00,
2013-01-06 06:45:00,9.5,6.4,30.34,N/A,-737280,0.0,-999.0,87,0.00,,,0.00,Wunderground v.1.15,2013-01-06 11:45:00,
2013-01-06 06:50:00,9.5,6.4,30.34,N/A,-737280,0.0,-999.0,87,0.00,,,0.00,Wunderground v.1.15,2013-01-06 11:50:00,
2013-01-06 06:55:00,9.5,6.4,30.34,N/A,-737280,0.0,-999.0,87,0.00,,,0.00,Wunderground v.1.15,2013-01-06 11:55:00,
2013-01-06 07:00:00,9.5,6.4,30.34,N/A,-737280,0.0,-999.0,87,0.00,,,0.00,Wunderground v.1.15,2013-01-06 12:00:00,
2013-01-06 07:05:00,9.5,6.4,30.34,N/A,-737280,0.0,-999.0,87,0.00,,,0.00,Wunderground v.1.15,2013-01-06 12:05:00,
2013-01-06 07:10:00,9.5,6.4,30.34,N/A,-737280,0.0,-999.0,87,0.00,,,0.00,Wunderground v.1.15,2013-01-06 12:10:00,
2013-01-06 07:15:00,10.9,7.3,30.34,N/A,-737280,0.0,-999.0,85,0.00,,,0.00,Wunderground v.1.15,2013-01-06 12:15:00,
2013-01-06 07:20:00,10.9,7.3,30.34,N/A,-737280,0.0,-999.0,85,0.00,,,0.00,Wunderground v.1.15,2013-01-06 12:20:00,
2013-01-06 07:25:00,10.9,7.3,30.34,N/A,-737280,0.0,-999.0,85,0.00,,,0.00,Wunderground v.1.15,2013-01-06 12:25:00,
2013-01-06 07:30:00,10.9,7.3,30.34,N/A,-737280,0.0,-999.0,85,0.00,,,0.00,Wunderground v.1.15,2013-01-06 12:30:00,
2013-01-06 07:35:00,10.9,7.3,30.34,N/A,-737280,0.0,-999.0,85,0.00,,,0.00,Wunderground v.1.15,2013-01-06 12:35:00,
2013-01-06 07:40:00,10.9,7.3,30.34,N/A,-737280,0.0,-999.0,85,0.00,,,0.00,Wunderground v.1.15,2013-01-06 12:40:00,
2013-01-06 07:45:00,12.5,8.6,30.34,SW,225,0.0,-999.0,84,0.00,,,0.00,Wunderground v.1.15,2013-01-06 12:45:00,
2013-01-06 07:50:00,12.5,8.6,30.34,SW,225,0.0,-999.0,84,0.00,,,0.00,Wunderground v.1.15,2013-01-06 12:50:00,
2013-01-06 07:55:00,12.5,8.6,30.34,SW,225,0.0,-999.0,84,0.00,,,0.00,Wunderground v.1.15,2013-01-06 12:55:00,
2013-01-06 08:00:00,12.5,8.6,30.34,SW,225,0.0,-999.0,84,0.00,,,0.00,Wunderground v.1.15,2013-01-06 13:00:00,
2013-01-06 08:05:00,12.5,8.6,30.34,SW,225,0.0,-999.0,84,0.00,,,0.00,Wunderground v.1.15,2013-01-06 13:05:00,
2013-01-06 08:10:00,12.5,8.6,30.34,SW,225,0.0,-999.0,84,0.00,,,0.00,Wunderground v.1.15,2013-01-06 13:10:00,
2013-01-06 08:15:00,14.2,10.3,30.33,ENE,68,0.0,-999.0,84,0.00,,,0.00,Wunderground v.1.15,2013-01-06 13:15:00,
2013-01-06 08:20:00,14.2,10.3,30.33,ENE,68,0.0,-999.0,84,0.00,,,0.00,Wunderground v.1.15,2013-01-06 13:20:00,
2013-01-06 08:25:00,14.2,10.3,30.33,ENE,68,0.0,-999.0,84,0.00,,,0.00,Wunderground v.1.15,2013-01-06 13:25:00,
2013-01-06 08:30:00,14.2,10.3,30.33,ENE,68,0.0,-999.0,84,0.00,,,0.00,Wunderground v.1.15,2013-01-06 13:30:00,
2013-01-06 08:35:00,14.2,10.3,30.33,ENE,68,0.0,-999.0,84,0.00,,,0.00,Wunderground v.1.15,2013-01-06 13:35:00,
2013-01-06 08:40:00,14.2,10.3,30.33,ENE,68,0.0,-999.0,84,0.00,,,0.00,Wunderground v.1.15,2013-01-06 13:40:00,
2013-01-06 08:45:00,16.4,12.1,30.31,ENE,68,0.0,-999.0,83,0.00,,,0.00,Wunderground v.1.15,2013-01-06 13:45:00,
2013-01-06 08:50:00,16.4,12.1,30.31,ENE,68,0.0,-999.0,83,0.00,,,0.00,Wunderground v.1.15,2013-01-06 13:50:00,
2013-01-06 08:55:00,16.4,12.1,30.31,ENE,68,0.0,-999.0,83,0.00,,,0.00,Wunderground v.1.15,2013-01-06 13:55:00,
2013-01-06 09:00:00,16.4,12.1,30.31,ENE,68,0.0,-999.0,83,0.00,,,0.00,Wunderground v.1.15,2013-01-06 14:00:00,
2013-01-06 09:05:00,16.4,12.1,30.31,ENE,68,0.0,-999.0,83,0.00,,,0.00,Wunderground v.1.15,2013-01-06 14:05:00,
2013-01-06 09:10:00,16.4,12.1,30.31,ENE,68,0.0,-999.0,83,0.00,,,0.00,Wunderground v.1.15,2013-01-06 14:10:00,
2013-01-06 09:15:00,19.2,14.3,30.30,North,0,0.0,-999.0,81,0.00,,,0.00,Wunderground v.1.15,2013-01-06 14:15:00,
2013-01-06 09:20:00,19.2,14.3,30.30,North,0,0.0,-999.0,81,0.00,,,0.00,Wunderground v.1.15,2013-01-06 14:20:00,
2013-01-06 09:25:00,19.2,14.3,30.30,North,0,0.0,-999.0,81,0.00,,,0.00,Wunderground v.1.15,2013-01-06 14:25:00,
2013-01-06 09:30:00,19.2,14.3,30.30,North,0,0.0,-999.0,81,0.00,,,0.00,Wunderground v.1.15,2013-01-06 14:30:00,
2013-01-06 09:35:00,19.2,14.3,30.30,North,0,0.0,-999.0,81,0.00,,,0.00,Wunderground v.1.15,2013-01-06 14:35:00,
2013-01-06 09:40:00,19.2,14.3,30.30,North,0,0.0,-999.0,81,0.00,,,0.00,Wunderground v.1.15,2013-01-06 14:40:00,
2013-01-06 09:45:00,23.2,17.1,30.28,N/A,-737280,0.0,-999.0,77,0.00,,,0.00,Wunderground v.1.15,2013-01-06 14:45:00,
2013-01-06 09:50:00,23.2,17.1,30.28,N/A,-737280,0.0,-999.0,77,0.00,,,0.00,Wunderground v.1.15,2013-01-06 14:50:00,
2013-01-06 09:55:00,23.2,17.1,30.28,N/A,-737280,0.0,-999.0,77,0.00,,,0.00,Wunderground v.1.15,2013-01-06 14:55:00,
2013-01-06 10:00:00,23.2,17.1,30.28,N/A,-737280,0.0,-999.0,77,0.00,,,0.00,Wunderground v.1.15,2013-01-06 15:00:00,
2013-01-06 10:05:00,23.2,17.1,30.28,N/A,-737280,0.0,-999.0,77,0.00,,,0.00,Wunderground v.1.15,2013-01-06 15:05:00,
2013-01-06 10:10:00,23.2,17.1,30.28,N/A,-737280,0.0,-999.0,77,0.00,,,0.00,Wunderground v.1.15,2013-01-06 15:10:00,
2013-01-06 10:15:00,24.8,19.2,30.26,N/A,-737280,0.0,-999.0,79,0.00,,,0.00,Wunderground v.1.15,2013-01-06 15:15:00,
2013-01-06 10:20:00,24.8,19.2,30.26,N/A,-737280,0.0,-999.0,79,0.00,,,0.00,Wunderground v.1.15,2013-01-06 15:20:00,
2013-01-06 10:25:00,24.8,19.2,30.26,N/A,-737280,0.0,-999.0,79,0.00,,,0.00,Wunderground v.1.15,2013-01-06 15:25:00,
2013-01-06 10:30:00,24.8,19.2,30.26,N/A,-737280,0.0,-999.0,79,0.00,,,0.00,Wunderground v.1.15,2013-01-06 15:30:00,
2013-01-06 10:35:00,24.8,19.2,30.26,N/A,-737280,0.0,-999.0,79,0.00,,,0.00,Wunderground v.1.15,2013-01-06 15:35:00,
2013-01-06 10:40:00,24.8,19.2,30.26,N/A,-737280,0.0,-999.0,79,0.00,,,0.00,Wunderground v.1.15,2013-01-06 15:40:00,
2013-01-06 10:45:00,24.3,19.6,30.26,N/A,-737280,0.0,-999.0,82,0.00,,,0.00,Wunderground v.1.15,2013-01-06 15:45:00,
2013-01-06 10:50:00,24.3,19.6,30.26,N/A,-737280,0.0,-999.0,82,0.00,,,0.00,Wunderground v.1.15,2013-01-06 15:50:00,
2013-01-06 10:55:00,24.3,19.6,30.26,N/A,-737280,0.0,-999.0,82,0.00,,,0.00,Wunderground v.1.15,2013-01-06 15:55:00,
2013-01-06 11:00:00,24.3,19.6,30.26,N/A,-737280,0.0,-999.0,82,0.00,,,0.00,Wunderground v.1.15,2013-01-06 16:00:00,
2013-01-06 11:05:00,24.3,19.6,30.26,N/A,-737280,0.0,-999.0,82,0.00,,,0.00,Wunderground v.1.15,2013-01-06 16:05:00,
2013-01-06 11:10:00,24.3,19.6,30.26,N/A,-737280,0.0,-999.0,82,0.00,,,0.00,Wunderground v.1.15,2013-01-06 16:10:00,
2013-01-06 11:15:00,24.6,20.5,30.25,N/A,-737280,0.0,-999.0,84,0.00,,,0.00,Wunderground v.1.15,2013-01-06 16:15:00,
2013-01-06 11:20:00,24.6,20.5,30.25,N/A,-737280,0.0,-999.0,84,0.00,,,0.00,Wunderground v.1.15,2013-01-06 16:20:00,
2013-01-06 11:25:00,24.6,20.5,30.25,N/A,-737280,0.0,-999.0,84,0.00,,,0.00,Wunderground v.1.15,2013-01-06 16:25:00,
2013-01-06 11:30:00,24.6,20.5,30.25,N/A,-737280,0.0,-999.0,84,0.00,,,0.00,Wunderground v.1.15,2013-01-06 16:30:00,
2013-01-06 11:35:00,24.6,20.5,30.25,N/A,-737280,0.0,-999.0,84,0.00,,,0.00,Wunderground v.1.15,2013-01-06 16:35:00,
2013-01-06 11:40:00,24.6,20.5,30.25,N/A,-737280,0.0,-999.0,84,0.00,,,0.00,Wunderground v.1.15,2013-01-06 16:40:00,
2013-01-06 11:45:00,24.3,20.4,30.24,N/A,-737280,0.0,-999.0,85,0.00,,,0.00,Wunderground v.1.15,2013-01-06 16:45:00,
2013-01-06 11:50:00,24.3,20.4,30.24,N/A,-737280,0.0,-999.0,85,0.00,,,0.00,Wunderground v.1.15,2013-01-06 16:50:00,
2013-01-06 11:55:00,24.3,20.4,30.24,N/A,-737280,0.0,-999.0,85,0.00,,,0.00,Wunderground v.1.15,2013-01-06 16:55:00,
2013-01-06 12:00:00,24.3,20.4,30.24,N/A,-737280,0.0,-999.0,85,0.00,,,0.00,Wunderground v.1.15,2013-01-06 17:00:00,
2013-01-06 12:05:00,24.3,20.4,30.24,N/A,-737280,0.0,-999.0,85,0.00,,,0.00,Wunderground v.1.15,2013-01-06 17:05:00,
2013-01-06 12:10:00,24.3,20.4,30.24,N/A,-737280,0.0,-999.0,85,0.00,,,0.00,Wunderground v.1.15,2013-01-06 17:10:00,
2013-01-06 12:15:00,25.3,21.1,30.23,N/A,-737280,0.0,-999.0,84,0.00,,,0.00,Wunderground v.1.15,2013-01-06 17:15:00,
2013-01-06 12:20:00,25.3,21.1,30.23,N/A,-737280,0.0,-999.0,84,0.00,,,0.00,Wunderground v.1.15,2013-01-06 17:20:00,
2013-01-06 12:25:00,25.3,21.1,30.23,N/A,-737280,0.0,-999.0,84,0.00,,,0.00,Wunderground v.1.15,2013-01-06 17:25:00,
2013-01-06 12:30:00,25.3,21.1,30.23,N/A,-737280,0.0,-999.0,84,0.00,,,0.00,Wunderground v.1.15,2013-01-06 17:30:00,
2013-01-06 12:35:00,25.3,21.1,30.23,N/A,-737280,0.0,-999.0,84,0.00,,,0.00,Wunderground v.1.15,2013-01-06 17:35:00,
2013-01-06 12:40:00,25.3,21.1,30.23,N/A,-737280,0.0,-999.0,84,0.00,,,0.00,Wunderground v.1.15,2013-01-06 17:40:00,
2013-01-06 12:45:00,26.1,21.9,30.23,N/A,-737280,0.0,-999.0,84,0.00,,,0.00,Wunderground v.1.15,2013-01-06 17:45:00,
2013-01-06 12:50:00,26.1,21.9,30.23,N/A,-737280,0.0,-999.0,84,0.00,,,0.00,Wunderground v.1.15,2013-01-06 17:50:00,
2013-01-06 12:55:00,26.1,21.9,30.23,N/A,-737280,0.0,-999.0,84,0.00,,,0.00,Wunderground v.1.15,2013-01-06 17:55:00,
2013-01-06 13:00:00,26.1,21.9,30.23,N/A,-737280,0.0,-999.0,84,0.00,,,0.00,Wunderground v.1.15,2013-01-06 18:00:00,
2013-01-06 13:05:00,26.1,21.9,30.23,N/A,-737280,0.0,-999.0,84,0.00,,,0.00,Wunderground v.1.15,2013-01-06 18:05:00,
2013-01-06 13:10:00,26.1,21.9,30.23,N/A,-737280,0.0,-999.0,84,0.00,,,0.00,Wunderground v.1.15,2013-01-06 18:10:00,
2013-01-06 13:15:00,26.4,22.8,30.23,N/A,-737280,0.0,-999.0,86,0.00,,,0.00,Wunderground v.1.15,2013-01-06 18:15:00,
2013-01-06 13:20:00,26.4,22.8,30.23,N/A,-737280,0.0,-999.0,86,0.00,,,0.00,Wunderground v.1.15,2013-01-06 18:20:00,
2013-01-06 13:25:00,26.4,22.8,30.23,N/A,-737280,0.0,-999.0,86,0.00,,,0.00,Wunderground v.1.15,2013-01-06 18:25:00,
2013-01-06 13:30:00,26.4,22.8,30.23,N/A,-737280,0.0,-999.0,86,0.00,,,0.00,Wunderground v.1.15,2013-01-06 18:30:00,
2013-01-06 13:35:00,26.4,22.8,30.23,N/A,-737280,0.0,-999.0,86,0.00,,,0.00,Wunderground v.1.15,2013-01-06 18:35:00,
2013-01-06 13:40:00,26.4,22.8,30.23,N/A,-737280,0.0,-999.0,86,0.00,,,0.00,Wunderground v.1.15,2013-01-06 18:40:00,
2013-01-06 13:45:00,26.2,22.9,30.23,N/A,-737280,0.0,-999.0,87,0.00,,,0.00,Wunderground v.1.15,2013-01-06 18:45:00,
2013-01-06 13:50:00,26.2,22.9,30.23,N/A,-737280,0.0,-999.0,87,0.00,,,0.00,Wunderground v.1.15,2013-01-06 18:50:00,
2013-01-06 13:55:00,26.2,22.9,30.23,N/A,-737280,0.0,-999.0,87,0.00,,,0.00,Wunderground v.1.15,2013-01-06 18:55:00,
2013-01-06 14:00:00,26.2,22.9,30.23,N/A,-737280,0.0,-999.0,87,0.00,,,0.00,Wunderground v.1.15,2013-01-06 19:00:00,
2013-01-06 14:05:00,26.2,22.9,30.23,N/A,-737280,0.0,-999.0,87,0.00,,,0.00,Wunderground v.1.15,2013-01-06 19:05:00,
2013-01-06 14:10:00,26.2,22.9,30.23,N/A,-737280,0.0,-999.0,87,0.00,,,0.00,Wunderground v.1.15,2013-01-06 19:10:00,
2013-01-06 14:15:00,26.1,23.0,30.23,N/A,-737280,0.0,-999.0,88,0.00,,,0.00,Wunderground v.1.15,2013-01-06 19:15:00,
2013-01-06 14:20:00,26.1,23.0,30.23,N/A,-737280,0.0,-999.0,88,0.00,,,0.00,Wunderground v.1.15,2013-01-06 19:20:00,
2013-01-06 14:25:00,26.1,23.0,30.23,N/A,-737280,0.0,-999.0,88,0.00,,,0.00,Wunderground v.1.15,2013-01-06 19:25:00,
2013-01-06 14:30:00,26.1,23.0,30.23,N/A,-737280,0.0,-999.0,88,0.00,,,0.00,Wunderground v.1.15,2013-01-06 19:30:00,
2013-01-06 14:35:00,26.1,23.0,30.23,N/A,-737280,0.0,-999.0,88,0.00,,,0.00,Wunderground v.1.15,2013-01-06 19:35:00,
2013-01-06 14:40:00,26.1,23.0,30.23,N/A,-737280,0.0,-999.0,88,0.00,,,0.00,Wunderground v.1.15,2013-01-06 19:40:00,
2013-01-06 14:45:00,25.8,23.0,30.23,N/A,-737280,0.0,-999.0,89,0.00,,,0.00,Wunderground v.1.15,2013-01-06 19:45:00,
2013-01-06 14:50:00,25.8,23.0,30.23,N/A,-737280,0.0,-999.0,89,0.00,,,0.00,Wunderground v.1.15,2013-01-06 19:50:00,
2013-01-06 14:55:00,25.8,23.0,30.23,N/A,-737280,0.0,-999.0,89,0.00,,,0.00,Wunderground v.1.15,2013-01-06 19:55:00,
2013-01-06 15:00:00,25.8,23.0,30.23,N/A,-737280,0.0,-999.0,89,0.00,,,0.00,Wunderground v.1.15,2013-01-06 20:00:00,
2013-01-06 15:05:00,25.8,23.0,30.23,N/A,-737280,0.0,-999.0,89,0.00,,,0.00,Wunderground v.1.15,2013-01-06 20:05:00,
2013-01-06 15:10:00,25.8,23.0,30.23,N/A,-737280,0.0,-999.0,89,0.00,,,0.00,Wunderground v.1.15,2013-01-06 20:10:00,
2013-01-06 15:15:00,25.1,22.8,30.23,N/A,-737280,0.0,-999.0,91,0.00,,,0.00,Wunderground v.1.15,2013-01-06 20:15:00,
2013-01-06 15:20:00,25.1,22.8,30.23,N/A,-737280,0.0,-999.0,91,0.00,,,0.00,Wunderground v.1.15,2013-01-06 20:20:00,
2013-01-06 15:25:00,25.1,22.8,30.23,N/A,-737280,0.0,-999.0,91,0.00,,,0.00,Wunderground v.1.15,2013-01-06 20:25:00,
2013-01-06 15:30:00,25.1,22.8,30.23,N/A,-737280,0.0,-999.0,91,0.00,,,0.00,Wunderground v.1.15,2013-01-06 20:30:00,
2013-01-06 15:35:00,25.1,22.8,30.23,N/A,-737280,0.0,-999.0,91,0.00,,,0.00,Wunderground v.1.15,2013-01-06 20:35:00,
2013-01-06 15:40:00,25.1,22.8,30.23,N/A,-737280,0.0,-999.0,91,0.00,,,0.00,Wunderground v.1.15,2013-01-06 20:40:00,
2013-01-06 15:45:00,24.5,22.5,30.23,N/A,-737280,0.0,-999.0,92,0.00,,,0.00,Wunderground v.1.15,2013-01-06 20:45:00,
2013-01-06 15:50:00,24.5,22.5,30.23,N/A,-737280,0.0,-999.0,92,0.00,,,0.00,Wunderground v.1.15,2013-01-06 20:50:00,
2013-01-06 15:55:00,24.5,22.5,30.23,N/A,-737280,0.0,-999.0,92,0.00,,,0.00,Wunderground v.1.15,2013-01-06 20:55:00,
2013-01-06 16:00:00,24.5,22.5,30.23,N/A,-737280,0.0,-999.0,92,0.00,,,0.00,Wunderground v.1.15,2013-01-06 21:00:00,
2013-01-06 16:05:00,24.5,22.5,30.23,N/A,-737280,0.0,-999.0,92,0.00,,,0.00,Wunderground v.1.15,2013-01-06 21:05:00,
2013-01-06 16:10:00,24.5,22.5,30.23,N/A,-737280,0.0,-999.0,92,0.00,,,0.00,Wunderground v.1.15,2013-01-06 21:10:00,
2013-01-06 16:15:00,24.3,22.3,30.24,N/A,-737280,0.0,-999.0,92,0.00,,,0.00,Wunderground v.1.15,2013-01-06 21:15:00,
2013-01-06 16:20:00,24.3,22.3,30.24,N/A,-737280,0.0,-999.0,92,0.00,,,0.00,Wunderground v.1.15,2013-01-06 21:20:00,
2013-01-06 16:25:00,24.3,22.3,30.24,N/A,-737280,0.0,-999.0,92,0.00,,,0.00,Wunderground v.1.15,2013-01-06 21:25:00,
2013-01-06 16:30:00,24.3,22.3,30.24,N/A,-737280,0.0,-999.0,92,0.00,,,0.00,Wunderground v.1.15,2013-01-06 21:30:00,
2013-01-06 16:35:00,24.3,22.3,30.24,N/A,-737280,0.0,-999.0,92,0.00,,,0.00,Wunderground v.1.15,2013-01-06 21:35:00,
2013-01-06 16:40:00,24.3,22.3,30.24,N/A,-737280,0.0,-999.0,92,0.00,,,0.00,Wunderground v.1.15,2013-01-06 21:40:00,
2013-01-06 16:45:00,24.1,22.1,30.24,N/A,-737280,0.0,-999.0,92,0.00,,,0.00,Wunderground v.1.15,2013-01-06 21:45:00,
2013-01-06 16:50:00,24.1,22.1,30.24,N/A,-737280,0.0,-999.0,92,0.00,,,0.00,Wunderground v.1.15,2013-01-06 21:50:00,
2013-01-06 16:55:00,24.1,22.1,30.24,N/A,-737280,0.0,-999.0,92,0.00,,,0.00,Wunderground v.1.15,2013-01-06 21:55:00,
2013-01-06 17:00:00,24.1,22.1,30.24,N/A,-737280,0.0,-999.0,92,0.00,,,0.00,Wunderground v.1.15,2013-01-06 22:00:00,
2013-01-06 17:05:00,24.1,22.1,30.24,N/A,-737280,0.0,-999.0,92,0.00,,,0.00,Wunderground v.1.15,2013-01-06 22:05:00,
2013-01-06 17:10:00,24.1,22.1,30.24,N/A,-737280,0.0,-999.0,92,0.00,,,0.00,Wunderground v.1.15,2013-01-06 22:10:00,
2013-01-06 17:15:00,23.9,22.2,30.24,N/A,-737280,0.0,-999.0,93,0.00,,,0.00,Wunderground v.1.15,2013-01-06 22:15:00,
2013-01-06 17:20:00,23.9,22.2,30.24,N/A,-737280,0.0,-999.0,93,0.00,,,0.00,Wunderground v.1.15,2013-01-06 22:20:00,
2013-01-06 17:25:00,23.9,22.2,30.24,N/A,-737280,0.0,-999.0,93,0.00,,,0.00,Wunderground v.1.15,2013-01-06 22:25:00,
2013-01-06 17:30:00,23.9,22.2,30.24,N/A,-737280,0.0,-999.0,93,0.00,,,0.00,Wunderground v.1.15,2013-01-06 22:30:00,
2013-01-06 17:35:00,23.9,22.2,30.24,N/A,-737280,0.0,-999.0,93,0.00,,,0.00,Wunderground v.1.15,2013-01-06 22:35:00,
2013-01-06 17:40:00,23.9,22.2,30.24,N/A,-737280,0.0,-999.0,93,0.00,,,0.00,Wunderground v.1.15,2013-01-06 22:40:00,
2013-01-06 17:45:00,23.7,22.0,30.25,N/A,-737280,0.0,-999.0,93,0.00,,,0.00,Wunderground v.1.15,2013-01-06 22:45:00,
2013-01-06 17:50:00,23.7,22.0,30.25,N/A,-737280,0.0,-999.0,93,0.00,,,0.00,Wunderground v.1.15,2013-01-06 22:50:00,
2013-01-06 17:55:00,23.7,22.0,30.25,N/A,-737280,0.0,-999.0,93,0.00,,,0.00,Wunderground v.1.15,2013-01-06 22:55:00,
2013-01-06 18:00:00,23.7,22.0,30.25,N/A,-737280,0.0,-999.0,93,0.00,,,0.00,Wunderground v.1.15,2013-01-06 23:00:00,
2013-01-06 18:05:00,23.7,22.0,30.25,N/A,-737280,0.0,-999.0,93,0.00,,,0.00,Wunderground v.1.15,2013-01-06 23:05:00,
2013-01-06 18:10:00,23.7,22.0,30.25,N/A,-737280,0.0,-999.0,93,0.00,,,0.00,Wunderground v.1.15,2013-01-06 23:10:00,
2013-01-06 18:15:00,23.4,21.7,30.25,N/A,-737280,0.0,-999.0,93,0.00,,,0.00,Wunderground v.1.15,2013-01-06 23:15:00,
2013-01-06 18:20:00,23.4,21.7,30.25,N/A,-737280,0.0,-999.0,93,0.00,,,0.00,Wunderground v.1.15,2013-01-06 23:20:00,
2013-01-06 18:25:00,23.4,21.7,30.25,N/A,-737280,0.0,-999.0,93,0.00,,,0.00,Wunderground v.1.15,2013-01-06 23:25:00,
2013-01-06 18:30:00,23.4,21.7,30.25,N/A,-737280,0.0,-999.0,93,0.00,,,0.00,Wunderground v.1.15,2013-01-06 23:30:00,
2013-01-06 18:35:00,23.4,21.7,30.25,N/A,-737280,0.0,-999.0,93,0.00,,,0.00,Wunderground v.1.15,2013-01-06 23:35:00,
2013-01-06 18:40:00,23.4,21.7,30.25,N/A,-737280,0.0,-999.0,93,0.00,,,0.00,Wunderground v.1.15,2013-01-06 23:40:00,
2013-01-06 18:45:00,23.3,21.6,30.24,N/A,-737280,0.0,-999.0,93,0.00,,,0.00,Wunderground v.1.15,2013-01-06 23:45:00,
2013-01-06 18:50:00,23.3,21.6,30.24,N/A,-737280,0.0,-999.0,93,0.00,,,0.00,Wunderground v.1.15,2013-01-06 23:50:00,
2013-01-06 18:55:00,23.3,21.6,30.24,N/A,-737280,0.0,-999.0,93,0.00,,,0.00,Wunderground v.1.15,2013-01-06 23:55:00,
2013-01-06 19:00:00,23.3,21.6,30.24,N/A,-737280,0.0,-999.0,93,0.00,,,0.00,Wunderground v.1.15,2013-01-07 00:00:00,
2013-01-06 19:05:00,23.3,21.6,30.24,N/A,-737280,0.0,-999.0,93,0.00,,,0.00,Wunderground v.1.15,2013-01-07 00:05:00,
2013-01-06 19:10:00,23.3,21.6,30.24,N/A,-737280,0.0,-999.0,93,0.00,,,0.00,Wunderground v.1.15,2013-01-07 00:10:00,
2013-01-06 19:15:00,23.4,21.7,30.24,N/A,-737280,0.0,-999.0,93,0.00,,,0.00,Wunderground v.1.15,2013-01-07 00:15:00,
2013-01-06 19:20:00,23.4,21.7,30.24,N/A,-737280,0.0,-999.0,93,0.00,,,0.00,Wunderground v.1.15,2013-01-07 00:20:00,
2013-01-06 19:25:00,23.4,21.7,30.24,N/A,-737280,0.0,-999.0,93,0.00,,,0.00,Wunderground v.1.15,2013-01-07 00:25:00,
2013-01-06 19:30:00,23.4,21.7,30.24,N/A,-737280,0.0,-999.0,93,0.00,,,0.00,Wunderground v.1.15,2013-01-07 00:30:00,
2013-01-06 19:35:00,23.4,21.7,30.24,N/A,-737280,0.0,-999.0,93,0.00,,,0.00,Wunderground v.1.15,2013-01-07 00:35:00,
2013-01-06 19:40:00,23.4,21.7,30.24,N/A,-737280,0.0,-999.0,93,0.00,,,0.00,Wunderground v.1.15,2013-01-07 00:40:00,
2013-01-06 19:45:00,23.2,21.5,30.24,N/A,-737280,0.0,-999.0,93,0.00,,,0.00,Wunderground v.1.15,2013-01-07 00:45:00,
2013-01-06 19:50:00,23.2,21.5,30.24,N/A,-737280,0.0,-999.0,93,0.00,,,0.00,Wunderground v.1.15,2013-01-07 00:50:00,
2013-01-06 19:55:00,23.2,21.5,30.24,N/A,-737280,0.0,-999.0,93,0.00,,,0.00,Wunderground v.1.15,2013-01-07 00:55:00,
2013-01-06 20:00:00,23.2,21.5,30.24,N/A,-737280,0.0,-999.0,93,0.00,,,0.00,Wunderground v.1.15,2013-01-07 01:00:00,
2013-01-06 20:05:00,23.2,21.5,30.24,N/A,-737280,0.0,-999.0,93,0.00,,,0.00,Wunderground v.1.15,2013-01-07 01:05:00,
2013-01-06 20:10:00,23.2,21.5,30.24,N/A,-737280,0.0,-999.0,93,0.00,,,0.00,Wunderground v.1.15,2013-01-07 01:10:00,
2013-01-06 20:15:00,23.3,21.8,30.24,N/A,-737280,0.0,-999.0,94,0.00,,,0.00,Wunderground v.1.15,2013-01-07 01:15:00,
2013-01-06 20:20:00,23.3,21.8,30.24,N/A,-737280,0.0,-999.0,94,0.00,,,0.00,Wunderground v.1.15,2013-01-07 01:20:00,
2013-01-06 20:25:00,23.3,21.8,30.24,N/A,-737280,0.0,-999.0,94,0.00,,,0.00,Wunderground v.1.15,2013-01-07 01:25:00,
2013-01-06 20:30:00,23.3,21.8,30.24,N/A,-737280,0.0,-999.0,94,0.00,,,0.00,Wunderground v.1.15,2013-01-07 01:30:00,
2013-01-06 20:35:00,23.3,21.8,30.24,N/A,-737280,0.0,-999.0,94,0.00,,,0.00,Wunderground v.1.15,2013-01-07 01:35:00,
2013-01-06 20:40:00,23.3,21.8,30.24,N/A,-737280,0.0,-999.0,94,0.00,,,0.00,Wunderground v.1.15,2013-01-07 01:40:00,
2013-01-06 20:45:00,23.5,21.8,30.25,N/A,-737280,0.0,-999.0,93,0.00,,,0.00,Wunderground v.1.15,2013-01-07 01:45:00,
2013-01-06 20:50:00,23.5,21.8,30.25,N/A,-737280,0.0,-999.0,93,0.00,,,0.00,Wunderground v.1.15,2013-01-07 01:50:00,
2013-01-06 20:55:00,23.5,21.8,30.25,N/A,-737280,0.0,-999.0,93,0.00,,,0.00,Wunderground v.1.15,2013-01-07 01:55:00,
2013-01-06 21:00:00,23.5,21.8,30.25,N/A,-737280,0.0,-999.0,93,0.00,,,0.00,Wunderground v.1.15,2013-01-07 02:00:00,
2013-01-06 21:05:00,23.5,21.8,30.25,N/A,-737280,0.0,-999.0,93,0.00,,,0.00,Wunderground v.1.15,2013-01-07 02:05:00,
2013-01-06 21:10:00,23.5,21.8,30.25,N/A,-737280,0.0,-999.0,93,0.00,,,0.00,Wunderground v.1.15,2013-01-07 02:10:00,
2013-01-06 21:15:00,23.7,22.0,30.25,N/A,-737280,0.0,-999.0,93,0.00,,,0.00,Wunderground v.1.15,2013-01-07 02:15:00,
2013-01-06 21:20:00,23.7,22.0,30.25,N/A,-737280,0.0,-999.0,93,0.00,,,0.00,Wunderground v.1.15,2013-01-07 02:20:00,
2013-01-06 21:25:00,23.7,22.0,30.25,N/A,-737280,0.0,-999.0,93,0.00,,,0.00,Wunderground v.1.15,2013-01-07 02:25:00,
2013-01-06 21:30:00,23.7,22.0,30.25,N/A,-737280,0.0,-999.0,93,0.00,,,0.00,Wunderground v.1.15,2013-01-07 02:30:00,
2013-01-06 21:35:00,23.7,22.0,30.25,N/A,-737280,0.0,-999.0,93,0.00,,,0.00,Wunderground v.1.15,2013-01-07 02:35:00,
2013-01-06 21:40:00,23.7,22.0,30.25,N/A,-737280,0.0,-999.0,93,0.00,,,0.00,Wunderground v.1.15,2013-01-07 02:40:00,
2013-01-06 21:45:00,23.8,22.1,30.25,N/A,-737280,0.0,-999.0,93,0.00,,,0.00,Wunderground v.1.15,2013-01-07 02:45:00,
2013-01-06 21:50:00,23.8,22.1,30.25,N/A,-737280,0.0,-999.0,93,0.00,,,0.00,Wunderground v.1.15,2013-01-07 02:50:00,
2013-01-06 21:55:00,23.8,22.1,30.25,N/A,-737280,0.0,-999.0,93,0.00,,,0.00,Wunderground v.1.15,2013-01-07 02:55:00,
2013-01-06 22:00:00,23.8,22.1,30.25,N/A,-737280,0.0,-999.0,93,0.00,,,0.00,Wunderground v.1.15,2013-01-07 03:00:00,
2013-01-06 22:05:00,23.8,22.1,30.25,N/A,-737280,0.0,-999.0,93,0.00,,,0.00,Wunderground v.1.15,2013-01-07 03:05:00,
2013-01-06 22:10:00,23.8,22.1,30.25,N/A,-737280,0.0,-999.0,93,0.00,,,0.00,Wunderground v.1.15,2013-01-07 03:10:00,
2013-01-06 22:15:00,24.0,22.3,30.25,N/A,-737280,0.0,-999.0,93,0.00,,,0.00,Wunderground v.1.15,2013-01-07 03:15:00,
2013-01-06 22:20:00,24.0,22.3,30.25,N/A,-737280,0.0,-999.0,93,0.00,,,0.00,Wunderground v.1.15,2013-01-07 03:20:00,
2013-01-06 22:25:00,24.0,22.3,30.25,N/A,-737280,0.0,-999.0,93,0.00,,,0.00,Wunderground v.1.15,2013-01-07 03:25:00,
2013-01-06 22:30:00,24.0,22.3,30.25,N/A,-737280,0.0,-999.0,93,0.00,,,0.00,Wunderground v.1.15,2013-01-07 03:30:00,
2013-01-06 22:35:00,24.0,22.3,30.25,N/A,-737280,0.0,-999.0,93,0.00,,,0.00,Wunderground v.1.15,2013-01-07 03:35:00,
2013-01-06 22:40:00,24.0,22.3,30.25,N/A,-737280,0.0,-999.0,93,0.00,,,0.00,Wunderground v.1.15,2013-01-07 03:40:00,
2013-01-06 22:45:00,24.4,22.9,30.26,N/A,-737280,0.0,-999.0,94,0.00,,,0.00,Wunderground v.1.15,2013-01-07 03:45:00,
2013-01-06 22:50:00,24.4,22.9,30.26,N/A,-737280,0.0,-999.0,94,0.00,,,0.00,Wunderground v.1.15,2013-01-07 03:50:00,
2013-01-06 22:55:00,24.4,22.9,30.26,N/A,-737280,0.0,-999.0,94,0.00,,,0.00,Wunderground v.1.15,2013-01-07 03:55:00,
2013-01-06 23:00:00,24.4,22.9,30.26,N/A,-737280,0.0,-999.0,94,0.00,,,0.00,Wunderground v.1.15,2013-01-07 04:00:00,
2013-01-06 23:05:00,24.4,22.9,30.26,N/A,-737280,0.0,-999.0,94,0.00,,,0.00,Wunderground v.1.15,2013-01-07 04:05:00,
2013-01-06 23:10:00,24.4,22.9,30.26,N/A,-737280,0.0,-999.0,94,0.00,,,0.00,Wunderground v.1.15,2013-01-07 04:10:00,
2013-01-06 23:15:00,24.8,23.1,30.26,N/A,-737280,0.0,-999.0,93,0.00,,,0.00,Wunderground v.1.15,2013-01-07 04:15:00,
2013-01-06 23:20:00,24.8,23.1,30.26,N/A,-737280,0.0,-999.0,93,0.00,,,0.00,Wunderground v.1.15,2013-01-07 04:20:00,
2013-01-06 23:25:00,24.8,23.1,30.26,N/A,-737280,0.0,-999.0,93,0.00,,,0.00,Wunderground v.1.15,2013-01-07 04:25:00,
2013-01-06 23:30:00,24.8,23.1,30.26,N/A,-737280,0.0,-999.0,93,0.00,,,0.00,Wunderground v.1.15,2013-01-07 04:30:00,
2013-01-06 23:35:00,24.8,23.1,30.26,N/A,-737280,0.0,-999.0,93,0.00,,,0.00,Wunderground v.1.15,2013-01-07 04:35:00,
2013-01-06 23:40:00,24.8,23.1,30.26,N/A,-737280,0.0,-999.0,93,0.00,,,0.00,Wunderground v.1.15,2013-01-07 04:40:00,
2013-01-06 23:45:00,24.9,23.4,30.28,N/A,-737280,0.0,-999.0,94,0.00,,,0.00,Wunderground v.1.15,2013-01-07 04:45:00,
2013-01-06 23:50:00,24.9,23.4,30.28,N/A,-737280,0.0,-999.0,94,0.00,,,0.00,Wunderground v.1.15,2013-01-07 04:50:00,
2013-01-06 23:55:00,24.9,23.4,30.28,N/A,-737280,0.0,-999.0,94,0.00,,,0.00,Wunderground v.1.15,2013-01-07 04:55:00,